Home   Weather   Riehen   Past weeks

Flag for Switzerland Past Weather in Riehen, Basel-Stadt, Switzerland — Yesterday and Last 2 Weeks

Now
49 °F

Overcast.


Feels Like: 46 °F
Forecast: 42 / 52 °F
Wind: 7 mph from West

Location: Bale-Mulhouse

Current Time: Feb 20, 2017 at 7:09:01 pm

Latest Report: Feb 20, 2017 at 6:00 pm


Visibility: 19 mi

Pressure: 30.23 "Hg

Humidity: 69%

Dew Point: 39 °F

Location of RiehenLocation

Past Weather in Riehen — Graph

°F

Riehen Temperature Yesterday

Maximum temperature yesterday: 52 °F (at 4:00 pm)
Minimum temperature yesterday: 28 °F (at 4:00 am)
Average temperature yesterday: 39 °F

High & Low Weather Summary for the Past Weeks

 TemperatureHumidityPressure
High62 °F (Feb 15, 4:00 pm)100% (Feb 18, 3:00 am)30.62 "Hg (Feb 18, 3:00 am)
Low28 °F (Feb 15, 4:00 am)45% (Feb 15, 4:00 pm)29.62 "Hg (Feb 5, 5:00 pm)
Average39 °F84%30.25 "Hg
* Reported Feb 5 5:00 pm — Feb 20 5:00 pm, Riehen, Weather by CustomWeather, © 2017

Note: Actual official high and low records may vary slightly from our data, if they occured in-between our weather recording intervals... More about our weather records

Advertising

Riehen Weather History for the Previous 24 Hours

Scroll right to see more
 ConditionsComfort  
Time TempWeatherWind HumidityBarometerVisibility
5:00 pm
Mon, Feb 20
50 °FOvercast.5 mph70%30.23 "Hg19 mi
4:00 pm50 °FOvercast.8 mph67%30.23 "Hg19 mi
3:00 pm51 °FOvercast.14 mph65%30.24 "Hg9 mi
2:00 pm50 °FOvercast.9 mph71%30.26 "Hg9 mi
1:00 pm49 °FOvercast.9 mph71%30.29 "Hg9 mi
12:00 pm48 °FOvercast.10 mph70%30.32 "Hg9 mi
11:00 am46 °FOvercast.1 mph72%30.32 "Hg9 mi
10:00 am45 °FLight rain. Overcast.1 mph74%30.32 "Hg7 mi
9:00 am43 °FOvercast.3 mph78%30.32 "Hg11 mi
8:00 am42 °FOvercast.7 mph80%30.32 "Hg11 mi
7:00 am42 °FOvercast.6 mph80%30.30 "Hg11 mi
6:00 am42 °FOvercast.9 mph76%30.29 "Hg12 mi
5:00 am40 °FOvercast.1 mph81%30.29 "Hg12 mi
4:00 am40 °FChilly.7 mph78%30.29 "Hg11 mi
3:00 am43 °FOvercast.9 mph71%30.30 "Hg12 mi
2:00 am43 °FOvercast.6 mph72%30.31 "Hg13 mi
1:00 am44 °FOvercast.6 mph70%30.31 "Hg14 mi
12:00 am44 °FPassing clouds.7 mph68%30.31 "Hg16 mi
11:00 pm
Sun, Feb 19
42 °FPassing clouds.2 mph69%30.30 "Hg16 mi
10:00 pm44 °FPassing clouds.1 mph66%30.29 "Hg16 mi
9:00 pm44 °FPassing clouds.7 mph65%30.27 "Hg16 mi
8:00 pm44 °FPassing clouds.7 mph65%30.27 "Hg16 mi
7:00 pm46 °FPassing clouds.8 mph59%30.26 "Hg16 mi
Weather by CustomWeather, © 2017

See weather overviewHow to use our weather pages